Weather History for Lethbridge, Alberta

Change the Weather History Date:

Wednesday, October 2, 2013

  Actual Average Record
Temperature  
Mean Temperature 46 °F -  
Max Temperature 54 °F 53 °F - ()
Min Temperature 35 °F 29 °F - ()
Degree Days  
Heating Degree Days 20    
Moisture  
Dew Point 27 °F    
Average Humidity 49    
Maximum Humidity 79    
Minimum Humidity 20    
Precipitation  
Precipitation 0.00 in - - ()
Sea Level Pressure  
Sea Level Pressure 30.07 in    
Wind  
Wind Speed 10 mph ()    
Max Wind Speed 17 mph    
Max Gust Speed -    
T = Trace of Precipitation, MM = Missing Value Source: Averaged Metar Reports

Daily Weather History Graph

Daily Weather History Graph

Search for Another Location

Airport:

Trip Planner

Search our weather history database for the weather conditions in past years. The results will help you decide how hot, cold, wet, or windy it might be!

Date:

Astronomy

Oct. 02, 2013 Rise Set
Actual Time 7:33 AM MDT 7:06 PM MDT
Civil Twilight 7:00 AM MDT 7:38 PM MDT
Nautical Twilight 6:23 AM MDT 8:15 PM MDT
Astronomical Twilight 5:45 AM MDT 8:53 PM MDT
Moon 4:59 AM MDT (10/2) 5:52 PM MDT (10/2)
Length of Visible Light 12h 37m
Length of Day
11h 33m
Waning Crescent, 6% of the Moon is Illuminated
Oct 2
Waning Crescent
Oct 4
New
Oct 11
First Quarter
Oct 18
Full
Oct 26
Last Quarter

Hourly Weather History & Observations

Time (MDT) Temp. Windchill Dew Point Humidity Pressure Visibility Wind Dir Wind Speed Gust Speed Precip Events Conditions
12:00 AM 44 °F - 27 °F 39% 29.94 in - West 16.1 mph - -  
12:00 AM 44.2 °F 37.0 °F 27.5 °F 52% 29.94 in - West 16.1 mph - N/A   Unknown
1:00 AM 43.0 °F 35.1 °F 28.2 °F 56% 29.96 in - West 17.3 mph - N/A   Unknown
2:00 AM 42.1 °F 34.5 °F 27.7 °F 57% 29.98 in - West 15.0 mph - N/A   Unknown
3:00 AM 38.5 °F 32.7 °F 27.9 °F 66% 30.01 in - West 8.1 mph - N/A   Unknown
4:00 AM 37.4 °F 30.8 °F 27.5 °F 67% 30.02 in - WSW 9.2 mph - N/A   Unknown
5:00 AM 39.4 °F 33.2 °F 27.3 °F 62% 30.03 in - West 9.2 mph - N/A   Unknown
6:00 AM 38 °F - 28 °F 55% 30.05 in - West 10.4 mph - -  
6:00 AM 38.3 °F 31.9 °F 27.7 °F 66% 30.05 in - West 9.2 mph - N/A   Unknown
7:00 AM 40.3 °F 34.4 °F 28.0 °F 62% 30.06 in - WNW 9.2 mph - N/A   Unknown
8:00 AM 42.4 °F 36.1 °F 27.5 °F 56% 30.08 in - West 11.5 mph - N/A   Unknown
9:00 AM 45.0 °F 38.2 °F 27.7 °F 51% 30.08 in - West 15.0 mph - N/A   Unknown
10:00 AM 48.4 °F - 28.2 °F 46% 30.08 in - West 11.5 mph - N/A   Unknown
11:00 AM 51.1 °F - 24.8 °F 36% 30.08 in - West 11.5 mph - N/A   Unknown
12:00 PM 52 °F - 23 °F 20% 30.09 in - NW 9.2 mph - -  
12:00 PM 52.2 °F - 22.8 °F 32% 30.09 in - NW 9.2 mph - N/A   Unknown
1:00 PM 52.7 °F - 20.7 °F 29% 30.10 in - NW 8.1 mph - N/A   Unknown
2:00 PM 53.1 °F - 22.6 °F 31% 30.09 in - North 10.4 mph - N/A   Unknown
3:00 PM 53.2 °F - 24.8 °F 33% 30.10 in - North 6.9 mph - N/A   Unknown
4:00 PM 54.0 °F - 25.0 °F 33% 30.09 in - NNE 9.2 mph - N/A   Unknown
5:00 PM 53.2 °F - 27.9 °F 38% 30.09 in - NE 12.7 mph - N/A   Unknown
6:00 PM 50 °F - 27 °F 28% 30.11 in - NNE 8.1 mph - -  
6:00 PM 50.4 °F - 27.0 °F 40% 30.11 in - NE 6.9 mph - N/A   Unknown
7:00 PM 46.9 °F - 27.7 °F 47% 30.13 in - NE 6.9 mph - N/A   Unknown
8:00 PM 43.5 °F 39.4 °F 28.9 °F 56% 30.15 in - NE 6.9 mph - N/A   Unknown
9:00 PM 40.5 °F 35.8 °F 29.5 °F 65% 30.18 in - ENE 6.9 mph - N/A   Unknown
10:00 PM 38.3 °F 32.5 °F 29.8 °F 72% 30.19 in - NE 8.1 mph - N/A   Unknown
11:00 PM 35.4 °F 29.7 °F 29.5 °F 79% 30.20 in - NE 6.9 mph - N/A   Unknown